FW7338 Weather Reports


time (UTC)temp
F
wind
direction
speed
knots
gust
knots
rain 1hr
in
rain 24hr
in
rain mn
in
humidity
%
barometer
mb
20260502163059 64 325 14.8 20.9 0.00 0.00 0.00 42 1008.1
20260502161555 64 310 12.2 18.2 0.00 0.00 0.00 42 1008.0
20260502151607 59 280 9.6 15.6 0.00 0.00 0.00 42 1008.4
20260502123058 48 222 9.6 13.0 0.00 0.00 0.00 53 1009.5
20260502121558 48 206 10.4 14.8 0.00 0.00 0.00 53 1009.7
20260502114610 47 192 7.8 13.0 0.00 0.00 0.00 54 1009.7
20260502113100 47 197 10.4 13.9 0.00 0.00 0.00 53 1009.8
20260502111558 46 192 7.8 12.2 0.00 0.00 0.00 54 1010.0
20260502110056 46 196 8.7 14.8 0.00 0.00 0.00 54 1010.2
20260502104559 46 200 11.3 16.5 0.00 0.00 0.00 55 1010.2
20260502103056 45 201 9.6 13.9 0.00 0.00 0.00 57 1010.6
20260502101624 44 205 7.8 13.9 0.00 0.00 0.00 57 1010.9
20260502100104 44 197 7.8 12.2 0.00 0.00 0.00 56 1010.9
20260502090109 45 201 7.8 11.3 0.00 0.00 0.00 55 1011.8
20260502070123 42 223 5.2 7.8 0.00 0.00 0.00 60 1013.2
20260502064559 42 223 5.2 7.8 0.00 0.00 0.00 59 1013.1
20260502063059 42 223 6.1 8.7 0.00 0.00 0.00 58 1013.1
20260502061606 42 233 4.3 7.0 0.00 0.00 0.00 60 1013.2
20260502060100 42 233 6.1 8.7 0.00 0.00 0.00 60 1013.3
20260502054600 42 240 4.3 7.0 0.00 0.00 0.00 61 1013.6
20260502053056 41 243 6.1 7.8 0.00 0.00 0.00 63 1013.8
20260502051628 39 259 1.7 3.5 0.00 0.00 0.00 65 1013.7
20260502050100 41 259 1.7 6.1 0.00 0.00 0.00 61 1013.9
20260502044555 42 259 3.5 6.1 0.00 0.00 0.00 59 1013.9
20260502043107 44 260 2.6 6.1 0.00 0.00 0.00 56 1014.0
20260502041609 44 260 2.6 6.1 0.00 0.00 0.00 54 1014.2
20260502040105 45 260 5.2 7.0 0.00 0.00 0.00 53 1014.3
20260502034559 45 269 4.3 6.1 0.00 0.00 0.00 54 1014.3
20260502033100 44 283 4.3 6.1 0.00 0.00 0.00 56 1014.4
20260502031556 45 283 2.6 3.5 0.00 0.00 0.00 55 1014.3
20260502030106 47 283 2.6 6.1 0.00 0.00 0.00 50 1014.5
20260502024557 48 283 3.5 5.2 0.00 0.00 0.00 49 1014.4
20260502023123 50 283 2.6 3.5 0.00 0.00 0.00 44 1014.4
20260502021556 53 283 0.9 3.5 0.00 0.00 0.00 40 1014.4
20260502020112 54 283 2.6 5.2 0.00 0.00 0.00 39 1014.4
20260502014556 57 283 3.5 5.2 0.00 0.00 0.00 36 1014.3
20260502013114 61 283 2.6 6.1 0.00 0.00 0.00 33 1014.4
20260502011610 64 283 6.1 8.7 0.00 0.00 0.00 28 1014.5
20260502010101 65 289 5.2 10.4 0.00 0.00 0.00 27 1014.4
20260502004624 66 286 7.8 12.2 0.00 0.00 0.00 27 1014.6
20260502003102 66 280 7.8 11.3 0.00 0.00 0.00 25 1014.8
20260502001610 66 281 8.7 12.2 0.00 0.00 0.00 26 1014.6
20260501234607 66 302 6.1 13.9 0.00 0.00 0.00 26 1015.1
20260501233059 67 296 7.8 16.5 0.00 0.00 0.00 25 1015.4
20260501231557 66 323 9.6 16.5 0.00 0.00 0.00 25 1015.3
20260501230055 67 277 10.4 21.7 0.00 0.00 0.00 24 1015.6
20260501224557 67 325 10.4 15.6 0.00 0.00 0.00 26 1015.4
20260501223056 66 309 9.6 13.0 0.00 0.00 0.00 27 1015.6
20260501221558 66 304 5.2 11.3 0.00 0.00 0.00 27 1015.6
20260501220137 66 296 5.2 17.4 0.00 0.00 0.00 27 1015.9
20260501214558 64 333 6.1 13.9 0.00 0.00 0.00 27 1016.0
20260501213104 65 318 7.8 16.5 0.00 0.00 0.00 27 1016.1
20260501211556 66 307 11.3 16.5 0.00 0.00 0.00 27 1016.4
20260501210110 64 311 7.0 15.6 0.00 0.00 0.00 31 1016.4
20260501204600 64 275 10.4 19.1 0.00 0.00 0.00 28 1016.7
20260501203101 64 344 7.0 17.4 0.00 0.00 0.00 29 1016.8
20260501201605 63 304 10.4 16.5 0.00 0.00 0.00 31 1017.1
20260501200057 63 325 7.0 13.9 0.00 0.00 0.00 30 1017.4
20260501194554 62 294 5.2 10.4 0.00 0.00 0.00 31 1017.5
20260501193054 62 262 7.8 13.0 0.00 0.00 0.00 30 1017.7
20260501191603 61 164 3.5 13.9 0.00 0.00 0.00 33 1017.6
20260501190108 60 315 6.1 11.3 0.00 0.00 0.00 34 1017.7
20260501184557 60 210 2.6 8.7 0.00 0.00 0.00 35 1018.1
20260501183104 58 271 7.0 14.8 0.00 0.00 0.00 38 1018.2
20260501181607 58 250 4.3 14.8 0.00 0.00 0.00 39 1018.4